Location: Armstrong Village
(14.3346°N, 120.9854°E)
Time: 12:50:36
(UTC+00:00)

Cosmos 1821 Rocket - Pass Details

Date: 16 April 2026
Orbit: 945 x 1003 km, 82.9° (Epoch: 12 May)

Event Time Altitude Azimuth Distance (km) Brightness Sun altitude
Exits shadow 13:37:38 14° 290° (WNW) 2,402 6.5 -47.8°
Drops below altitude 10° 13:39:54 10° 312° (NW) 2,715 6.8 -48.3°
Sets 13:43:42 0° 335° (NNW) 3,675 7.6 -49.0°
